CKS9118 UNAA-WAAA

Flight info

Callsign CKS9118
Flight time N/A
Altitude 29000
Route INBER1Z INBER A308 TR P982 DARNO/K0900S0890 Y746 NIXAL/K0913S0950 B208 CGO W129 KAMDA/K0937S0920 V109 LKO/K0937S0980 A461 LIG/K0939S0950 R473 BEMAG/K0935S0980 V5 CON W6 SAREX/K0939S0950 W6 NLG W18 TAMOT/N0507F310 B330 BIGEX A583 SABNO/N0501F330 A583 AKOTA/N0504F320 M754 VINIK M522 ENBAX/N0497F340 M522 VJN/N0501F330 W425 VTW/N0497F340 A211 TRK W18 BPN/N0501F330 W37 GAMAL
Aircraft B77L/H-SDE1E2E3FGHIJ2J3J4J5M1RWXY/LB1D1

Departure

Time 2026-04-12 07:41
Airport Abakan International Airport (UNAA)

Arrival

Time N/A
Airport Sultan Hasanuddin International Airport (WAAA)
Time Latitude Longitude Altitude Speed Heading
2026-04-12 07:20 53.74964 91.39910 837 ft 0 kts 248°
2026-04-12 07:33 53.74964 91.39911 837 ft 0 kts 248°
2026-04-12 07:38 53.74964 91.39910 837 ft 1 kts 248°
2026-04-12 07:38 53.74974 91.39830 833 ft 13 kts 303°
2026-04-12 07:39 53.75029 91.39746 831 ft 8 kts 327°
2026-04-12 07:39 53.75076 91.39694 826 ft 9 kts 327°
2026-04-12 07:39 53.75150 91.39635 828 ft 13 kts 341°
2026-04-12 07:39 53.75237 91.39582 827 ft 13 kts 334°
2026-04-12 07:40 53.75247 91.39488 824 ft 8 kts 229°
2026-04-12 07:40 53.75213 91.39452 826 ft 0 kts 205°
2026-04-12 07:40 53.75204 91.39445 829 ft 11 kts 205°
2026-04-12 07:40 53.74892 91.39203 828 ft 88 kts 205°
2026-04-12 07:41 53.74102 91.38591 837 ft 159 kts 205°
2026-04-12 07:41 53.72957 91.37720 1125 ft 184 kts 206°
2026-04-12 07:41 53.71820 91.36840 2052 ft 179 kts 211°
2026-04-12 07:41 53.70645 91.35906 2346 ft 195 kts 210°
2026-04-12 07:42 53.69384 91.34915 2703 ft 201 kts 210°
2026-04-12 07:42 53.68123 91.33932 3228 ft 202 kts 210°
2026-04-12 07:42 53.66836 91.32936 3694 ft 205 kts 210°
2026-04-12 07:43 53.62815 91.29838 4930 ft 224 kts 209°
2026-04-12 07:43 53.61378 91.28737 5452 ft 230 kts 210°
2026-04-12 07:43 53.59887 91.27593 5847 ft 242 kts 210°
2026-04-12 07:44 53.58253 91.26683 6039 ft 262 kts 189°
2026-04-12 07:44 53.56389 91.27120 6475 ft 282 kts 162°
2026-04-12 07:44 53.54710 91.28966 7000 ft 297 kts 136°
2026-04-12 07:44 53.53591 91.31917 7623 ft 305 kts 111°
2026-04-12 07:45 53.53181 91.35416 8194 ft 308 kts 95°
2026-04-12 07:45 53.53033 91.39028 8805 ft 312 kts 93°
2026-04-12 07:45 53.52912 91.42668 9499 ft 311 kts 93°
2026-04-12 07:45 53.52787 91.46323 10083 ft 316 kts 93°
2026-04-12 07:46 53.52645 91.50036 10555 ft 322 kts 94°
2026-04-12 07:46 53.52486 91.53907 10720 ft 341 kts 94°
2026-04-12 07:46 53.52307 91.57994 10875 ft 360 kts 94°
2026-04-12 07:46 53.52112 91.62301 11039 ft 379 kts 94°
2026-04-12 07:47 53.51905 91.66795 11366 ft 392 kts 94°
2026-04-12 07:47 53.51688 91.71404 11846 ft 400 kts 94°
2026-04-12 07:47 53.51464 91.76113 12394 ft 407 kts 94°
2026-04-12 07:47 53.50958 91.80778 12801 ft 411 kts 112°
2026-04-12 07:48 53.49522 91.84924 13316 ft 412 kts 134°
2026-04-12 07:48 53.47555 91.88420 13789 ft 416 kts 136°
2026-04-12 07:48 53.45569 91.91910 14328 ft 421 kts 136°
2026-04-12 07:48 53.43560 91.95503 14891 ft 425 kts 135°
2026-04-12 07:49 53.41543 91.99156 15453 ft 428 kts 135°
2026-04-12 07:49 53.39513 92.02837 15997 ft 432 kts 135°
2026-04-12 07:49 53.37404 92.06461 16530 ft 435 kts 139°
2026-04-12 07:49 53.35187 92.09938 17023 ft 439 kts 139°
2026-04-12 07:50 53.32936 92.13427 17550 ft 443 kts 139°
2026-04-12 07:50 53.30657 92.16946 18109 ft 447 kts 139°
2026-04-12 07:50 53.28363 92.20492 18615 ft 451 kts 139°
2026-04-12 07:50 53.26048 92.24074 19064 ft 455 kts 139°
2026-04-12 07:51 53.23751 92.27630 19494 ft 458 kts 139°
2026-04-12 07:51 53.21406 92.31262 19932 ft 462 kts 138°
2026-04-12 07:51 53.19040 92.34923 20386 ft 465 kts 138°
2026-04-12 07:51 53.16654 92.38611 20818 ft 469 kts 138°
2026-04-12 07:52 53.14248 92.42324 21255 ft 473 kts 138°
2026-04-12 07:52 53.11823 92.46060 21675 ft 476 kts 138°
2026-04-12 07:52 53.09385 92.49811 22100 ft 480 kts 138°
2026-04-12 07:52 53.06920 92.53595 22509 ft 483 kts 138°
2026-04-12 07:53 53.04438 92.57399 22927 ft 487 kts 138°
2026-04-12 07:53 53.01931 92.61237 23349 ft 491 kts 138°
2026-04-12 07:53 52.99441 92.65041 23758 ft 494 kts 138°
2026-04-12 07:53 52.96899 92.68917 24112 ft 497 kts 138°
2026-04-12 07:54 52.94339 92.72818 24475 ft 500 kts 138°
2026-04-12 07:54 52.91772 92.76720 24837 ft 502 kts 138°
2026-04-12 07:54 52.89189 92.80641 25183 ft 505 kts 138°
2026-04-12 07:54 52.86581 92.84592 25524 ft 508 kts 138°
2026-04-12 07:55 52.83967 92.88546 25878 ft 510 kts 138°
2026-04-12 07:55 52.81368 92.92470 26192 ft 513 kts 138°
2026-04-12 07:55 52.78726 92.96452 26540 ft 515 kts 139°
2026-04-12 07:55 52.76070 93.00447 26877 ft 518 kts 139°
2026-04-12 07:56 52.73400 93.04458 27202 ft 520 kts 139°
2026-04-12 07:56 52.70706 93.08497 27535 ft 523 kts 139°
2026-04-12 07:56 52.68004 93.12542 27861 ft 525 kts 139°
2026-04-12 07:56 52.65282 93.16609 28202 ft 528 kts 139°
2026-04-12 07:57 52.62590 93.20625 28484 ft 530 kts 139°
2026-04-12 07:57 52.59851 93.24705 28790 ft 532 kts 139°
2026-04-12 07:57 52.57095 93.28802 29083 ft 534 kts 139°
2026-04-12 07:57 52.54326 93.32910 29214 ft 539 kts 139°
2026-04-12 07:58 52.48722 93.41202 29263 ft 543 kts 139°
2026-04-12 07:58 52.43124 93.49460 29266 ft 541 kts 139°
2026-04-12 07:59 52.37529 93.57682 29258 ft 540 kts 139°
2026-04-12 07:59 52.31936 93.65871 29261 ft 540 kts 139°
2026-04-12 08:00 52.26335 93.74044 29257 ft 539 kts 139°
2026-04-12 08:00 52.20729 93.82199 29237 ft 540 kts 139°
2026-04-12 08:01 52.15414 93.90761 29248 ft 540 kts 129°
2026-04-12 08:01 52.11032 94.00653 29259 ft 539 kts 119°
2026-04-12 08:02 52.07170 94.11111 29247 ft 540 kts 119°
2026-04-12 08:02 52.03272 94.21553 29254 ft 541 kts 119°
2026-04-12 08:03 51.99328 94.31961 29242 ft 542 kts 120°
2026-04-12 08:03 51.95354 94.42364 29222 ft 541 kts 119°
2026-04-12 08:04 51.91408 94.52648 29240 ft 541 kts 119°
2026-04-12 08:04 51.87426 94.62996 29258 ft 540 kts 119°
2026-04-12 08:05 51.83444 94.73306 29249 ft 540 kts 119°
2026-04-12 08:05 51.79456 94.83589 29244 ft 540 kts 119°
2026-04-12 08:06 51.75462 94.93846 29243 ft 539 kts 119°
2026-04-12 08:06 51.71486 95.04015 29237 ft 539 kts 119°
2026-04-12 08:07 51.67474 95.14240 29234 ft 539 kts 119°
2026-04-12 08:07 51.63453 95.24443 29236 ft 539 kts 119°
2026-04-12 08:08 51.59423 95.34632 29227 ft 540 kts 119°
2026-04-12 08:08 51.55383 95.44801 29219 ft 540 kts 119°
2026-04-12 08:09 51.51329 95.54966 29216 ft 539 kts 119°
2026-04-12 08:09 51.47297 95.65036 29217 ft 539 kts 119°
2026-04-12 08:10 51.43234 95.75146 29220 ft 539 kts 119°
2026-04-12 08:10 51.39163 95.85239 29230 ft 538 kts 119°
2026-04-12 08:11 51.35089 95.95293 29214 ft 538 kts 119°
2026-04-12 08:11 51.31009 96.05328 29214 ft 538 kts 119°
2026-04-12 08:12 51.26917 96.15352 29213 ft 538 kts 119°
2026-04-12 08:12 51.23501 96.23690 29205 ft 538 kts 119°
2026-04-12 08:13 51.19398 96.33670 29210 ft 538 kts 119°
2026-04-12 08:13 51.14618 96.45250 29203 ft 538 kts 119°
2026-04-12 08:14 51.11160 96.53593 29205 ft 538 kts 119°
2026-04-12 08:14 51.07055 96.63463 29202 ft 538 kts 119°
2026-04-12 08:15 51.02922 96.73364 29202 ft 538 kts 119°
2026-04-12 08:15 50.98774 96.83263 29179 ft 538 kts 119°
2026-04-12 08:16 50.94622 96.93130 29195 ft 537 kts 119°
2026-04-12 08:16 50.90464 97.02981 29187 ft 536 kts 120°
2026-04-12 08:17 50.86309 97.12785 29185 ft 536 kts 119°
2026-04-12 08:17 50.82174 97.22504 29170 ft 535 kts 119°
2026-04-12 08:18 50.78009 97.32257 29171 ft 535 kts 119°
2026-04-12 08:18 50.73838 97.41994 29160 ft 535 kts 119°
2026-04-12 08:19 50.69674 97.51672 29173 ft 535 kts 120°
2026-04-12 08:19 50.65490 97.61365 29196 ft 534 kts 120°
2026-04-12 08:20 50.61302 97.71033 29199 ft 534 kts 120°
2026-04-12 08:20 50.57104 97.80694 29196 ft 533 kts 120°
2026-04-12 08:21 50.52913 97.90318 29203 ft 533 kts 120°
2026-04-12 08:21 50.48719 97.99919 29202 ft 531 kts 121°
2026-04-12 08:22 50.44555 98.09414 29204 ft 530 kts 121°
2026-04-12 08:22 50.40376 98.18910 29202 ft 528 kts 121°
2026-04-12 08:23 50.36196 98.28377 29204 ft 527 kts 121°
2026-04-12 08:23 50.32000 98.37806 29198 ft 527 kts 122°
2026-04-12 08:24 50.27790 98.47197 29182 ft 527 kts 122°
2026-04-12 08:24 50.23599 98.56518 29190 ft 528 kts 122°
2026-04-12 08:25 50.19367 98.65906 29183 ft 529 kts 123°
2026-04-12 08:25 50.15122 98.75291 29169 ft 530 kts 123°
2026-04-12 08:26 50.10855 98.84691 29155 ft 530 kts 124°
2026-04-12 08:26 50.06580 98.94072 29146 ft 531 kts 124°
2026-04-12 08:27 50.02299 99.03438 29137 ft 531 kts 124°
2026-04-12 08:27 49.98035 99.12731 29128 ft 531 kts 125°
2026-04-12 08:28 49.93741 99.22058 29116 ft 530 kts 125°
2026-04-12 08:28 49.89447 99.31351 29111 ft 529 kts 126°
2026-04-12 08:29 49.85150 99.40619 29109 ft 529 kts 126°
2026-04-12 08:29 49.80852 99.49856 29095 ft 528 kts 126°
2026-04-12 08:30 49.76551 99.59068 29091 ft 528 kts 127°
2026-04-12 08:30 49.72248 99.68254 29075 ft 527 kts 127°
2026-04-12 08:31 49.67935 99.77430 29073 ft 528 kts 127°
2026-04-12 08:31 49.63610 99.86603 29070 ft 528 kts 128°
2026-04-12 08:32 49.59275 99.95760 29056 ft 528 kts 128°
2026-04-12 08:32 49.54964 100.04834 29064 ft 528 kts 128°
2026-04-12 08:33 49.50617 100.13958 29043 ft 528 kts 129°
2026-04-12 08:33 49.46263 100.23065 29044 ft 528 kts 129°
2026-04-12 08:34 49.41906 100.32155 29053 ft 527 kts 129°
2026-04-12 08:34 49.37573 100.41159 29057 ft 526 kts 130°
2026-04-12 08:35 49.33213 100.50188 29044 ft 526 kts 130°
2026-04-12 08:35 49.28847 100.59201 29052 ft 526 kts 130°
2026-04-12 08:36 49.24472 100.68199 29036 ft 527 kts 131°
2026-04-12 08:36 49.20084 100.77196 29045 ft 528 kts 131°
2026-04-12 08:37 49.15682 100.86191 29040 ft 529 kts 131°
2026-04-12 08:37 49.11261 100.95196 29055 ft 530 kts 132°
2026-04-12 08:38 49.06833 101.04185 29057 ft 530 kts 132°
2026-04-12 08:38 49.02391 101.13170 29076 ft 530 kts 133°
2026-04-12 08:39 48.97970 101.22084 29069 ft 531 kts 133°
2026-04-12 08:39 48.93512 101.31042 29070 ft 531 kts 133°
2026-04-12 08:40 48.89057 101.39967 29063 ft 530 kts 134°
2026-04-12 08:40 48.84588 101.48888 29058 ft 530 kts 134°
2026-04-12 08:41 48.80114 101.57791 29059 ft 530 kts 134°
2026-04-12 08:41 48.75630 101.66688 29050 ft 531 kts 134°
2026-04-12 08:42 48.71157 101.75526 29055 ft 530 kts 135°
2026-04-12 08:42 48.66649 101.84384 29059 ft 531 kts 135°
2026-04-12 08:43 48.62140 101.93220 29068 ft 530 kts 135°
2026-04-12 08:43 48.57629 102.02036 29077 ft 531 kts 135°
2026-04-12 08:44 48.53098 102.10862 29069 ft 531 kts 135°
2026-04-12 08:44 48.48601 102.19596 29081 ft 530 kts 136°
2026-04-12 08:45 48.44069 102.28369 29094 ft 530 kts 136°
2026-04-12 08:45 48.39535 102.37114 29087 ft 529 kts 136°
2026-04-12 08:46 48.35001 102.45832 29120 ft 529 kts 136°
2026-04-12 08:47 48.28180 102.58896 29110 ft 529 kts 136°
2026-04-12 08:47 48.23624 102.67585 29108 ft 530 kts 136°
2026-04-12 08:48 48.19084 102.76217 29112 ft 531 kts 136°
2026-04-12 08:48 48.14496 102.84915 29118 ft 531 kts 136°
2026-04-12 08:49 48.09908 102.93584 29110 ft 531 kts 136°
2026-04-12 08:49 48.05309 103.02244 29114 ft 531 kts 136°
2026-04-12 08:50 48.00708 103.10883 29121 ft 531 kts 136°
2026-04-12 08:50 47.96098 103.19513 29139 ft 530 kts 136°
2026-04-12 08:51 47.91496 103.28103 29129 ft 530 kts 136°
2026-04-12 08:51 47.86886 103.36671 29122 ft 529 kts 136°
2026-04-12 08:52 47.82301 103.45165 29132 ft 529 kts 135°
2026-04-12 08:52 47.77693 103.53681 29128 ft 529 kts 135°
2026-04-12 08:53 47.73068 103.62203 29130 ft 530 kts 135°
2026-04-12 08:53 47.68424 103.70732 29129 ft 532 kts 135°
2026-04-12 08:54 47.63755 103.79282 29092 ft 534 kts 135°
2026-04-12 08:54 47.59071 103.87832 29084 ft 535 kts 135°
2026-04-12 08:55 47.54367 103.96393 29065 ft 536 kts 135°
2026-04-12 08:55 47.49647 104.04957 29040 ft 538 kts 135°
2026-04-12 08:56 47.44901 104.13545 29023 ft 539 kts 135°
2026-04-12 08:56 47.40167 104.22077 28995 ft 541 kts 136°
2026-04-12 08:57 47.35382 104.30665 28971 ft 541 kts 136°
2026-04-12 08:57 47.30591 104.39243 28963 ft 541 kts 136°
2026-04-12 08:58 47.25788 104.47818 28934 ft 542 kts 136°